Palm Springs, CA

7:35 PM PDT on June 17, 2018 (GMT -0700)
Palm Springs International

Weather History for KPSP - April, 2017

Change the Weather History Date:

Friday, April 7, 2017

  Actual Average Record
Temperature  
Mean Temperature 76 °F 69 °F  
Max Temperature 88 °F 83 °F 112 °F (1989)
Min Temperature 64 °F 55 °F 40 °F (1969)
Degree Days  
Heating Degree Days 0 1  
Month to date heating degree days 0 7  
Since 1 July heating degree days 679 858  
Cooling Degree Days 11 5  
Month to date cooling degree days 68 34  
Year to date cooling degree days 359 154  
Growing Degree Days 26 (Base 50)    
Moisture  
Dew Point 27 °F    
Average Humidity 22    
Maximum Humidity 37    
Minimum Humidity 7    
Precipitation  
Precipitation 0.00 in 0.00 in 0.34 in (1958)
Month to date precipitation 0.00 0.02  
Year to date precipitation 5.18 2.66  
Sea Level Pressure  
Sea Level Pressure 29.92 in    
Wind  
Wind Speed 4 mph (NNW)    
Max Wind Speed 10 mph    
Max Gust Speed 14 mph    
Visibility 10 miles    
Events      
T = Trace of Precipitation, MM = Missing Value Source: NWS Daily Summary

Daily Weather History Graph

Daily Weather History Graph

Search for Another Location

Airport or City:

Astronomy

Apr. 07, 2017 Rise Set
Actual Time 6:25 AM PDT 7:11 PM PDT
Civil Twilight 5:59 AM PDT 7:36 PM PDT
Nautical Twilight 5:29 AM PDT 8:06 PM PDT
Astronomical Twilight 4:59 AM PDT 8:37 PM PDT
Moon 4:05 PM PDT (4/7) 4:32 AM PDT (4/7)
Length of Visible Light 13h 37m
Length of Day
12h 46m
Waxing Gibbous, 88% of the Moon is Illuminated
Apr 7
Waxing Gibbous
Apr 10
Full
Apr 19
Last Quarter
Apr 26
New
May 2
First Quarter

Hourly Weather History & Observations

Time (PDT) Temp. Dew Point Humidity Pressure Visibility Wind Dir Wind Speed Gust Speed Precip Events Conditions
12:53 AM 75.0 °F 34.0 °F 22% 29.91 in 10.0 mi NW 12.7 mph - N/A   Clear
1:53 AM 73.9 °F 33.1 °F 22% 29.91 in 10.0 mi WNW 4.6 mph - N/A   Clear
2:53 AM 70.0 °F 35.1 °F 28% 29.92 in 10.0 mi South 3.5 mph - N/A   Clear
3:53 AM 69.1 °F 36.0 °F 30% 29.92 in 10.0 mi Calm Calm - N/A   Clear
4:53 AM 69.1 °F 35.1 °F 29% 29.93 in 10.0 mi SE 3.5 mph - N/A   Clear
5:53 AM 66.9 °F 37.0 °F 33% 29.93 in 10.0 mi Calm Calm - N/A   Clear
6:53 AM 66.0 °F 39.0 °F 37% 29.95 in 10.0 mi Calm Calm - N/A   Clear
7:53 AM 69.1 °F 37.0 °F 31% 29.97 in 10.0 mi NNW 3.5 mph - N/A   Mostly Cloudy
8:53 AM 66.9 °F 39.9 °F 37% 29.98 in 10.0 mi Calm Calm - N/A   Clear
9:53 AM 71.1 °F 39.9 °F 32% 29.99 in 10.0 mi Calm Calm - N/A   Clear
10:53 AM 73.0 °F 33.1 °F 23% 29.99 in 10.0 mi Calm Calm - N/A   Clear
11:53 AM 77.0 °F 28.0 °F 17% 29.96 in 10.0 mi SSE 3.5 mph - N/A   Clear
12:53 PM 78.1 °F 27.0 °F 15% 29.95 in 10.0 mi SE 6.9 mph - N/A   Clear
1:53 PM 80.1 °F 21.9 °F 12% 29.93 in 10.0 mi East 5.8 mph - N/A   Mostly Cloudy
2:53 PM 82.9 °F 17.1 °F 9% 29.91 in 10.0 mi ESE 6.9 mph - N/A   Clear
3:53 PM 87.1 °F 21.0 °F 9% 29.88 in 10.0 mi Variable 6.9 mph - N/A   Clear
4:53 PM 87.1 °F 17.1 °F 8% 29.87 in 10.0 mi Variable 6.9 mph - N/A   Clear
5:53 PM 87.1 °F 16.0 °F 7% 29.86 in 10.0 mi NNW 9.2 mph - N/A   Clear
6:53 PM 82.9 °F 15.1 °F 8% 29.86 in 10.0 mi NNW 10.4 mph 25.3 mph N/A   Clear
7:53 PM 79.0 °F 15.1 °F 9% 29.87 in 10.0 mi North 10.4 mph 21.9 mph N/A   Clear
8:53 PM 77.0 °F 17.1 °F 10% 29.89 in 10.0 mi West 8.1 mph 19.6 mph N/A   Clear
9:53 PM 73.0 °F 19.0 °F 13% 29.91 in 10.0 mi Variable 6.9 mph - N/A   Scattered Clouds
10:53 PM 72.0 °F 19.0 °F 13% 29.91 in 10.0 mi NW 3.5 mph - N/A   Mostly Cloudy
11:53 PM 71.1 °F 16.0 °F 12% 29.91 in 10.0 mi North 5.8 mph - N/A   Mostly Cloudy